Regional Weather Roundup
Issued by NWS

Home | Current Version | Previous Version | Graphics & Text | Print | Product List | Glossary On
Versions: 1 2 3 4 5 6 7 8 9 10 11 12 13 14 15 16 17 18 19 20 21 22 23 24 25 26 27 28 29 30 31 32 33 34 35 36 37 38 39 40 41 42 43 44 45 46 47 48 49 50
000
ASUS43 KFSD 060910
RWRSD

WEATHER ROUNDUP FOR SOUTH DAKOTA
NATIONAL WEATHER SERVICE SIOUX FALLS SD
400 AM CDT WED MAY 06 2015

NOTE: "FAIR" INDICATES FEW OR NO CLOUDS BELOW 12,000 FEET WITH NO
SIGNIFICANT WEATHER AND/OR OBSTRUCTIONS TO VISIBILITY.


SDZ001>005-009-010-012>017-061000-
NORTHWEST AND NORTH CENTRAL SOUTH DAKOTA

CITY           SKY/WX    TMP DP  RH WIND       PRES   REMARKS
BUFFALO          N/A     57  51  80 SE18      29.67F
FAITH            N/A     57  54  89 SE9       29.78F
MOBRIDGE       CLOUDY    60  57  89 SE8       29.80F FOG
$$

SDZ012>016-024>037-041>051-057-063-072>074-061000-
SOUTHWEST AND SOUTH CENTRAL SOUTH DAKOTA

CITY           SKY/WX    TMP DP  RH WIND       PRES   REMARKS
RAPID CTY ARPT LGT RAIN  53  52  96 SE5       29.75F FOG
PIERRE         CLOUDY    58  55  90 SE9       29.79F
CUSTER         CLOUDY    48  46  93 E3        29.78F FOG
ELLSWORTH AFB  CLOUDY    53  53 100 S7        29.75F
PHILIP         LGT RAIN  56  55  97 E7        29.76F
PINE RIDGE     LGT RAIN  54  51  90 E7        29.74F
SPEARFISH      CLOUDY    54  48  82 E7        29.74F
WINNER         CLOUDY    60  55  83 SE12      29.79F
$$

SDZ004>011-016>023-039-040-061000-
NORTHEAST SOUTH DAKOTA

CITY           SKY/WX    TMP DP  RH WIND       PRES   REMARKS
ABERDEEN       CLOUDY    61  57  87 SE12      29.88F
WATERTOWN      CLOUDY    59  56  89 E8        29.93F
BROOKINGS      CLOUDY    59  57  94 SE13      29.94F
SISSETON         N/A     56  56 100 S18       29.94F
$$

SDZ017-020-022-023-036>040-048>070-061000-
SOUTHEAST SOUTH DAKOTA

CITY           SKY/WX    TMP DP  RH WIND       PRES   REMARKS
SIOUX FALLS    CLOUDY    63  59  87 SE15      29.92F
HURON          CLOUDY    62  59  90 SE12      29.86F
CHAMBERLAIN    CLOUDY    59  57  93 SE12      29.81F
MITCHELL       CLOUDY    63  60  90 SE13      29.86F FOG
YANKTON        CLOUDY    63  57  82 SE10      29.87F
$$

ABBREVIATIONS USED IN REMARKS
   TC - TEMPERATURE IN CELSIUS
  WCI - WIND CHILL INDEX
   HX - HEAT INDEX
  VSB - VISIBILITY




USA.gov is the U.S. government's official web portal to all federal, state and local government web resources and services.